View from above orbital plane
|
View from above satellite
|
Ground track
|
The orbit data is extracted from the following two-line orbital elements,
1 10521U 77119B 21018.63190974 .00000033 00000-0 18634-4 0 9997
2 10521 74.0285 359.6585 0019871 50.0808 310.2089 14.40807960260869
Epoch (UTC): | 18 January 2021 15:09:57 |
Eccentricity: | 0.0019871 |
inclination: | 74.0285° |
perigee height: | 741 km |
apogee height: | 770 km |
right ascension of ascending node: | 359.6585° |
argument of perigee: | 50.0808° |
revolutions per day: | 14.40807960 |
mean anomaly at epoch: | 310.2089° |
orbit number at epoch: | 26086 |
The dashed part of the orbit path shows where the satellite is in the earth's shadow,
|
|